Weather History for KD39 - August, 2013

Change the Weather History Date:

Friday, August 23, 2013

  Actual Average (KGHW) Record (KGHW)
Temperature  
Mean Temperature 67 °F -  
Max Temperature 85 °F 76 °F 96 °F (1949)
Min Temperature 49 °F 54 °F 40 °F (1987)
Cooling Degree Days 2    
Growing Degree Days 17 (Base 50)    
Moisture  
Dew Point 58 °F    
Average Humidity 69    
Maximum Humidity 97    
Minimum Humidity 39    
Precipitation  
Precipitation 0.00 in - - ()
Sea Level Pressure  
Sea Level Pressure 30.09 in    
Wind  
Wind Speed 5 mph (SE)    
Max Wind Speed 15 mph    
Max Gust Speed 22 mph    
Visibility 10 miles    
Events      
Averages and records for this station are not official NWS values.
T = Trace of Precipitation, MM = Missing Value Source: NWS Daily Summary

Daily Weather History Graph

Daily Weather History Graph

Search for Another Location

Airport or City:

Trip Planner

Search our weather history database for the weather conditions in past years. The results will help you decide how hot, cold, wet, or windy it might be!

Date:

Astronomy

Aug. 23, 2013 Rise Set
Actual Time 6:30 AM CDT 8:13 PM CDT
Civil Twilight 5:58 AM CDT 8:44 PM CDT
Nautical Twilight 5:20 AM CDT 9:23 PM CDT
Astronomical Twilight 4:38 AM CDT 10:04 PM CDT
Moon 9:19 PM CDT (8/23) 9:38 AM CDT (8/23)
Length of Visible Light 14h 46m
Length of Day
13h 43m
Waning Gibbous, 91% of the Moon is Illuminated
Aug 23
Waning Gibbous
Aug 28
Last Quarter
Sep 5
New
Sep 12
First Quarter
Sep 19
Full

Hourly Weather History & Observations

Time (CDT) Temp. Heat Index Dew Point Humidity Pressure Visibility Wind Dir Wind Speed Gust Speed Precip Events Conditions
12:12 AM 58.1 °F - 53.4 °F 84% 30.15 in 10.0 mi Calm Calm - N/A   Clear
12:33 AM 56.7 °F - 52.7 °F 87% 30.15 in 10.0 mi Calm Calm - N/A   Clear
12:52 AM 56.7 °F - 52.9 °F 87% 30.15 in 10.0 mi Calm Calm - N/A   Clear
1:12 AM 56.1 °F - 51.4 °F 84% 30.14 in 10.0 mi Calm Calm - N/A   Clear
1:33 AM 57.4 °F - 52.3 °F 83% 30.14 in 10.0 mi Calm Calm - N/A   Clear
1:52 AM 54.9 °F - 52.9 °F 93% 30.14 in 10.0 mi Calm Calm - N/A   Clear
2:12 AM 54.7 °F - 52.0 °F 91% 30.14 in 10.0 mi Calm Calm - N/A   Clear
2:33 AM 55.0 °F - 51.8 °F 89% 30.14 in 10.0 mi Calm Calm - N/A   Clear
2:52 AM 54.5 °F - 51.1 °F 88% 30.14 in 10.0 mi Calm Calm - N/A   Clear
3:13 AM 54.9 °F - 50.9 °F 86% 30.14 in 10.0 mi Calm Calm - N/A   Clear
3:32 AM 53.4 °F - 50.7 °F 91% 30.14 in 10.0 mi Calm Calm - N/A   Clear
3:52 AM 53.6 °F - 50.4 °F 89% 30.14 in 10.0 mi Calm Calm - N/A   Clear
4:13 AM 53.4 °F - 50.4 °F 89% 30.14 in 10.0 mi Calm Calm - N/A   Clear
4:32 AM 51.8 °F - 49.6 °F 92% 30.14 in 10.0 mi Calm Calm - N/A   Clear
4:52 AM 52.2 °F - 49.6 °F 91% 30.13 in 10.0 mi Calm Calm - N/A   Clear
5:13 AM 51.8 °F - 48.9 °F 90% 30.14 in 10.0 mi Calm Calm - N/A   Clear
5:32 AM 49.6 °F - 48.4 °F 95% 30.14 in 10.0 mi Calm Calm - N/A   Clear
5:52 AM 50.0 °F - 49.1 °F 97% 30.14 in 10.0 mi Calm Calm - N/A   Clear
6:13 AM 50.9 °F - 49.3 °F 94% 30.14 in 10.0 mi Calm Calm - N/A   Clear
6:32 AM 50.4 °F - 48.6 °F 94% 30.15 in 10.0 mi East 3.5 mph - N/A   Clear
6:53 AM 51.8 °F - 48.2 °F 88% 30.15 in 10.0 mi Calm Calm - N/A   Clear
7:12 AM 52.9 °F - 48.7 °F 86% 30.14 in 10.0 mi Calm Calm - N/A   Clear
7:32 AM 56.5 °F - 50.2 °F 79% 30.15 in 10.0 mi ESE 3.5 mph - N/A   Clear
7:53 AM 58.3 °F - 50.2 °F 74% 30.15 in 10.0 mi ESE 3.5 mph - N/A   Clear
8:12 AM 60.8 °F - 50.7 °F 69% 30.14 in 10.0 mi ESE 5.8 mph - N/A   Clear
8:32 AM 63.9 °F - 51.1 °F 63% 30.14 in 10.0 mi ESE 6.9 mph - N/A   Clear
8:53 AM 66.2 °F - 51.3 °F 59% 30.14 in 10.0 mi SE 8.1 mph - N/A   Clear
9:12 AM 68.0 °F - 51.6 °F 56% 30.14 in 10.0 mi SE 8.1 mph - N/A   Clear
9:33 AM 69.1 °F - 52.9 °F 56% 30.14 in 10.0 mi SE 5.8 mph - N/A   Clear
9:52 AM 70.3 °F - 53.1 °F 54% 30.14 in 10.0 mi SSE 6.9 mph - N/A   Clear
10:12 AM 71.6 °F - 53.6 °F 53% 30.14 in 10.0 mi ESE 5.8 mph - N/A   Clear
10:33 AM 73.6 °F - 54.9 °F 52% 30.12 in 10.0 mi SE 4.6 mph - N/A   Clear
10:52 AM 75.4 °F - 55.9 °F 51% 30.12 in 10.0 mi SE 5.8 mph - N/A   Clear
11:12 AM 77.2 °F - 55.9 °F 48% 30.12 in 10.0 mi SSE 9.2 mph - N/A   Clear
11:33 AM 78.1 °F - 55.0 °F 45% 30.12 in 10.0 mi SSE 10.4 mph - N/A   Clear
11:52 AM 79.0 °F - 56.1 °F 45% 30.12 in 10.0 mi SE 9.2 mph - N/A   Clear
12:12 PM 79.3 °F - 57.4 °F 47% 30.11 in 10.0 mi ESE 9.2 mph - N/A   Clear
12:33 PM 81.0 °F 81.2 °F 58.1 °F 46% 30.11 in 10.0 mi South 11.5 mph - N/A   Clear
12:52 PM 81.0 °F 81.1 °F 57.7 °F 45% 30.10 in 10.0 mi SE 11.5 mph - N/A   Clear
1:12 PM 81.9 °F 81.8 °F 58.1 °F 44% 30.09 in 10.0 mi SE 13.8 mph 17.3 mph N/A   Clear
1:33 PM 81.9 °F 81.8 °F 58.1 °F 44% 30.09 in 10.0 mi SSE 12.7 mph - N/A   Clear
1:52 PM 83.5 °F 82.9 °F 57.4 °F 41% 30.08 in 10.0 mi SE 15.0 mph 18.4 mph N/A   Clear
2:12 PM 84.0 °F 83.2 °F 56.7 °F 39% 30.07 in 10.0 mi SSE 15.0 mph 21.9 mph N/A   Clear
2:33 PM 83.3 °F 82.9 °F 57.9 °F 42% 30.07 in 10.0 mi SE 13.8 mph 20.7 mph N/A   Clear
2:52 PM 85.5 °F 85.0 °F 59.5 °F 41% 30.07 in 10.0 mi SE 13.8 mph 18.4 mph N/A   Clear
3:12 PM 84.4 °F 84.0 °F 59.0 °F 42% 30.05 in 10.0 mi SE 15.0 mph 18.4 mph N/A   Clear
3:33 PM 84.4 °F 84.8 °F 61.5 °F 46% 30.05 in 10.0 mi SSE 15.0 mph - N/A   Clear
3:52 PM 84.2 °F 85.2 °F 63.0 °F 49% 30.05 in 10.0 mi SSE 15.0 mph 20.7 mph N/A   Scattered Clouds
4:12 PM 84.9 °F 85.9 °F 63.3 °F 48% 30.05 in 10.0 mi SSE 13.8 mph - N/A   Scattered Clouds
4:32 PM 84.4 °F 85.9 °F 64.4 °F 51% 30.04 in 10.0 mi SSE 15.0 mph 21.9 mph N/A   Scattered Clouds
4:52 PM 84.9 °F 86.6 °F 65.1 °F 51% 30.04 in 10.0 mi South 11.5 mph - N/A   Scattered Clouds
5:13 PM 82.9 °F 84.8 °F 65.1 °F 55% 30.03 in 10.0 mi SSE 12.7 mph - N/A   Scattered Clouds
5:32 PM 83.5 °F 85.1 °F 64.8 °F 53% 30.03 in 10.0 mi South 13.8 mph - N/A   Scattered Clouds
5:52 PM 82.9 °F 84.8 °F 65.3 °F 55% 30.03 in 10.0 mi SSE 12.7 mph - N/A   Scattered Clouds
6:13 PM 82.6 °F 84.9 °F 66.2 °F 58% 30.02 in 10.0 mi SSE 13.8 mph - N/A   Scattered Clouds
6:32 PM 81.9 °F 84.1 °F 66.2 °F 59% 30.02 in 10.0 mi SSE 13.8 mph 17.3 mph N/A   Scattered Clouds
6:52 PM 81.1 °F 83.4 °F 66.7 °F 61% 30.02 in 10.0 mi SE 11.5 mph - N/A   Clear
7:13 PM 79.7 °F - 66.7 °F 64% 30.01 in 10.0 mi SSE 12.7 mph - N/A   Clear
7:32 PM 78.8 °F - 67.1 °F 67% 30.02 in 10.0 mi SSE 10.4 mph - N/A   Scattered Clouds
7:52 PM 78.1 °F - 67.3 °F 69% 30.01 in 10.0 mi SSE 10.4 mph - N/A   Scattered Clouds
8:13 PM 77.0 °F - 67.5 °F 72% 30.01 in 10.0 mi SSE 10.4 mph - N/A   Clear
8:32 PM 76.3 °F - 67.5 °F 74% 30.01 in 10.0 mi SSE 9.2 mph - N/A   Clear
8:52 PM 75.4 °F - 67.5 °F 76% 30.02 in 10.0 mi SE 10.4 mph - N/A   Clear
9:13 PM 74.7 °F - 67.5 °F 78% 30.02 in 10.0 mi ESE 6.9 mph - N/A   Clear
9:32 PM 74.3 °F - 67.5 °F 79% 30.02 in 10.0 mi SE 9.2 mph - N/A   Clear
9:52 PM 73.4 °F - 67.5 °F 82% 30.02 in 10.0 mi SE 8.1 mph - N/A   Clear
10:13 PM 72.9 °F - 67.5 °F 83% 30.02 in 10.0 mi SE 9.2 mph - N/A   Clear
10:32 PM 72.5 °F - 67.5 °F 84% 30.02 in 10.0 mi SSE 9.2 mph - N/A   Clear
10:52 PM 71.8 °F - 67.3 °F 86% 30.02 in 10.0 mi SE 9.2 mph - N/A   Clear
11:12 PM 71.4 °F - 67.1 °F 86% 30.02 in 10.0 mi SE 6.9 mph - N/A   Clear
11:32 PM 70.7 °F - 67.1 °F 88% 30.02 in 10.0 mi SE 6.9 mph - N/A   Clear
11:53 PM 70.7 °F - 67.1 °F 88% 30.02 in 10.0 mi SE 8.1 mph - N/A   Scattered Clouds